Showing default

CALSPHERE 2, 902

Orbit data source: Space-Track

CALSPHERE 2, 902 is a payload satellite owned by NRL (US) in LEO that was launched on Tue, 06 Oct 1964 UTC via a THOR ABLESTAR launch vehicle from the Air Force Western Test Range (AFWTR). Payload-class satellites include a variety of spacecraft equipped with specific instruments for various scientific and technological missions. These include communications satellites like Starlink; space stations such as the ISS; scientific satellites like the Hubble; Earth observation satellites from companies like Planet Labs, Umbra, and HawkEye 360; GPS; miniature CubeSats for education and research; and military/defense satellites.

Loading next visibility...
Identifier
902, 1964-063E
Orbit
LEO
Country
Flag of USUS
Related business
Manufacturer
NRL
Mission
Operational spacecraft
Bus & Motor
NRL 14", Unknown motor
Mass
10 kg wet, 10 kg dry
Launch date (UTC)
1964-10-06 (62 years ago)
Launch vehicle
THOR ABLESTAR
Launch site
Air Force Western Test Range (AFWTR)
Object type
Payload
Rocket body
Debris
Shape & HBR
SPHERE, 1.1 m
Radar Cross Section
Medium (>0.1 m² and <1 m²)

Expand to show TLE details & history
Last TLE update: 16 hours ago

TLE from 16 hours ago
0 CALSPHERE 2
1 00902U 64063E   26265.00508339  .00000035  00000-0  39562-4 0  9996
2 00902  90.2291  78.0697 0017078 310.3553 176.0048 13.52906529869355
Epoch: 2026-09-22T00:07Z
TLE epoch observation values (Epoch: 2026-09-22T00:07:19.204Z)
Latitude
53.71986°
Longitude
-104.32658°
Altitude
1,083.149 km
Speed
7.309 km/s
True Right ascension
17h 13m 31s
True Declination
53° 33' 46"
Sunlit
Object was in daylight at epoch
Visualization orbit readout
Latitude
Unknown
Longitude
Unknown
Altitude
Unknown
Speed
Unknown
Apparent Right ascension
Unknown
Apparent Declination
Unknown
Sunlit
N/A
Visualization observer readout
Local Sidereal Time
09:03:26
Azimuth
Unknown
Elevation
Unknown
Doppler factor
Unknown
Orbital elements
Apogee altitude
1,071.33 km
Perigee altitude
1,045.929 km
Semi-major axis
7,436.767 km
Eccentricity
0.00171
Inclination
90.2291°
RAAN
78.0697°
Arg. of periapsis
310.3553°
True anomaly
176.01841°
Mean anomaly
176.0048°
Eccentric anomaly
176.01161°
Mean motion
3.38429 °/min
Orbital period
106.37 mins
BSTAR
0.000039562
Loading maneuver chart data...
Computing Atmospheric mass density...
Loading historical data...
Loading historical data...
Loading historical data...
Loading historical data...
Loading historical data...
Loading historical data...
Loading historical data...

Documentation

Showing up to 5 results
|